Weather History for LFMC - April, 2014

Change the Weather History Date:

Monday, April 28, 2014

  Actual Average (LFTH) Record (LFTH)
Temperature  
Mean Temperature 62 °F -  
Max Temperature 71 °F 69 °F 73 °F (2007)
Min Temperature 53 °F 54 °F 42 °F (2004)
Degree Days  
Heating Degree Days 3    
Growing Degree Days 12 (Base 50)    
Moisture  
Dew Point 38 °F    
Average Humidity 39    
Maximum Humidity 54    
Minimum Humidity 17    
Precipitation  
Precipitation 0.00 in - - ()
Sea Level Pressure  
Sea Level Pressure 29.72 in    
Wind  
Wind Speed 17 mph ()    
Max Wind Speed 28 mph    
Max Gust Speed 38 mph    
Visibility 6.2 miles    
Events      
Averages and records for this station are not official NWS values.
T = Trace of Precipitation, MM = Missing Value Source: Averaged Metar Reports

Daily Weather History Graph

Daily Weather History Graph

Search for Another Location

Airport or City:

Trip Planner

Search our weather history database for the weather conditions in past years. The results will help you decide how hot, cold, wet, or windy it might be!

Date:

Astronomy

Apr. 28, 2014 Rise Set
Actual Time 6:32 AM CEST 8:32 PM CEST
Civil Twilight 6:01 AM CEST 9:03 PM CEST
Nautical Twilight 5:23 AM CEST 9:41 PM CEST
Astronomical Twilight 4:41 AM CEST 10:23 PM CEST
Moon 6:02 AM CEST (4/28) 7:52 PM CEST (4/28)
Length of Visible Light 15h 02m
Length of Day
14h 00m
Waning Crescent, 1% of the Moon is Illuminated
Apr 28
Waning Crescent
Apr 29
New
May 7
First Quarter
May 14
Full
May 21
Last Quarter

Hourly Weather History & Observations

Time (CEST) Temp. Dew Point Humidity Pressure Visibility Wind Dir Wind Speed Gust Speed Precip Events Conditions
12:00 AM 59 °F 40 °F 37% 29.76 in 31 mi NW 20.7 mph - -   Clear
12:00 AM 59.0 °F 39.2 °F 48% 29.74 in 6.2 mi NW 20.7 mph - N/A   Unknown
12:30 AM 59.0 °F 41.0 °F 51% 29.74 in 6.2 mi NW 21.9 mph - N/A   Unknown
1:00 AM 57 °F 39 °F 40% 29.76 in 31 mi NW 20.7 mph - -   Clear
1:00 AM 57.2 °F 39.2 °F 51% 29.74 in 6.2 mi NW 20.7 mph - N/A   Unknown
1:30 AM 57.2 °F 37.4 °F 48% 29.74 in 6.2 mi NW 18.4 mph 29.9 mph N/A   Unknown
2:00 AM 56 °F 38 °F 39% 29.77 in 31 mi NW 19.6 mph - -   Clear
2:00 AM 55.4 °F 37.4 °F 51% 29.74 in 6.2 mi NW 19.6 mph - N/A   Unknown
2:30 AM 55.4 °F 37.4 °F 51% 29.74 in 6.2 mi NW 18.4 mph - N/A   Unknown
3:00 AM 55 °F 38 °F 41% 29.77 in 31 mi West 5.8 mph - -   Clear
3:00 AM 55.4 °F 37.4 °F 51% 29.74 in 6.2 mi Variable 5.8 mph - N/A   Unknown
3:30 AM 55.4 °F 37.4 °F 51% 29.74 in 6.2 mi WNW 10.4 mph - N/A   Unknown
4:00 AM 55 °F 38 °F 41% 29.75 in 31 mi WNW 16.1 mph - -   Clear
4:00 AM 55.4 °F 37.4 °F 51% 29.74 in 6.2 mi WNW 16.1 mph - N/A   Unknown
4:30 AM 53.6 °F 37.4 °F 54% 29.74 in 6.2 mi NW 15.0 mph - N/A   Unknown
5:00 AM 53 °F 38 °F 44% 29.75 in 31 mi WNW 5.8 mph - -   Clear
5:00 AM 53.6 °F 37.4 °F 54% 29.74 in 6.2 mi WNW 5.8 mph - N/A   Unknown
5:30 AM 53.6 °F 37.4 °F 54% 29.74 in 6.2 mi WNW 9.2 mph - N/A   Unknown
6:00 AM 54 °F 38 °F 43% 29.75 in 31 mi WNW 12.7 mph - -   Clear
6:00 AM 53.6 °F 37.4 °F 54% 29.74 in 6.2 mi WNW 12.7 mph - N/A   Unknown
6:30 AM 53.6 °F 37.4 °F 54% 29.74 in 6.2 mi West 12.7 mph - N/A   Unknown
7:00 AM 54 °F 38 °F 43% 29.75 in 47 mi NW 19.6 mph - -   Scattered Clouds
7:00 AM 53.6 °F 37.4 °F 54% 29.74 in 6.2 mi NW 19.6 mph - N/A   Partly Cloudy
8:00 AM 55 °F 39 °F 43% 29.74 in 47 mi NW 20.7 mph - -   Scattered Clouds
8:00 AM 55.4 °F 39.2 °F 54% 29.71 in 6.2 mi NW 20.7 mph 33.4 mph N/A   Partly Cloudy
9:00 AM 58 °F 39 °F 37% 29.74 in 47 mi NW 24.2 mph - -   Scattered Clouds
9:00 AM 57.2 °F 39.2 °F 51% 29.71 in 6.2 mi NW 24.2 mph - N/A   Partly Cloudy
10:00 AM 62 °F 38 °F 29% 29.72 in 47 mi NNW 21.9 mph - -   Scattered Clouds
10:00 AM 60.8 °F 37.4 °F 42% 29.71 in 6.2 mi NNW 21.9 mph - N/A   Partly Cloudy
11:00 AM 63 °F 38 °F 28% 29.71 in 47 mi NNW 25.3 mph - -   Scattered Clouds
11:00 AM 64.4 °F 39.2 °F 40% 29.71 in 6.2 mi NNW 27.6 mph - N/A   Partly Cloudy
12:00 PM 67 °F 39 °F 24% 29.70 in 47 mi NNW 23.0 mph - -   Scattered Clouds
12:00 PM 66.2 °F 37.4 °F 35% 29.68 in 6.2 mi NNW 23.0 mph - N/A   Partly Cloudy
1:00 PM 68 °F 38 °F 22% 29.69 in 47 mi WNW 25.3 mph - -   Partly Cloudy
1:00 PM 68.0 °F 37.4 °F 33% 29.68 in 6.2 mi NW 24.2 mph - N/A   Partly Cloudy
2:00 PM 70 °F 38 °F 21% 29.69 in 47 mi NW 24.2 mph - -   Partly Cloudy
2:00 PM 69.8 °F 39.2 °F 33% 29.68 in 6.2 mi NNW 23.0 mph - N/A   Partly Cloudy
3:00 PM 71 °F 39 °F 20% 29.69 in 47 mi NNW 19.6 mph - -   Partly Cloudy
3:00 PM 69.8 °F 39.2 °F 33% 29.68 in 6.2 mi NNW 20.7 mph 35.7 mph N/A   Scattered Clouds
4:00 PM 70 °F 36 °F 19% 29.69 in 47 mi NW 23.0 mph - -   Partly Cloudy
4:00 PM 69.8 °F 37.4 °F 31% 29.68 in 6.2 mi NW 23.0 mph - N/A   Scattered Clouds
5:00 PM 70 °F 36 °F 18% 29.68 in 47 mi NW 24.2 mph - -   Partly Cloudy
5:00 PM 69.8 °F 35.6 °F 28% 29.68 in 6.2 mi NW 24.2 mph 38.0 mph N/A   Scattered Clouds
6:00 PM 70 °F 35 °F 17% 29.69 in 47 mi NW 24.2 mph - -   Scattered Clouds
6:00 PM 69.8 °F 35.6 °F 28% 29.68 in 6.2 mi NW 24.2 mph 35.7 mph N/A   Partly Cloudy
7:00 PM 68 °F 35 °F 19% 29.69 in 47 mi NNW 21.9 mph - -   Scattered Clouds
7:00 PM 68.0 °F 35.6 °F 30% 29.68 in 6.2 mi NW 21.9 mph - N/A   Partly Cloudy
8:00 PM 65 °F 37 °F 24% 29.70 in 47 mi NW 23.0 mph - -   Scattered Clouds
8:30 PM 64.4 °F 37.4 °F 37% 29.71 in 6.2 mi NW 20.7 mph - N/A   Unknown
9:00 PM 63 °F 37 °F 27% 29.72 in 31 mi NW 19.6 mph - -   Clear
9:00 PM 62.6 °F 37.4 °F 39% 29.71 in 6.2 mi NW 19.6 mph - N/A   Unknown
9:30 PM 62.6 °F 37.4 °F 39% 29.71 in 6.2 mi NW 18.4 mph - N/A   Unknown
10:00 PM 61 °F 37 °F 29% 29.73 in 31 mi NW 23.0 mph - -   Clear
10:00 PM 60.8 °F 37.4 °F 42% 29.71 in 6.2 mi NW 23.0 mph - N/A   Unknown
10:30 PM 60.8 °F 37.4 °F 42% 29.71 in 6.2 mi NW 16.1 mph - N/A   Unknown
11:00 PM 60 °F 37 °F 30% 29.74 in 31 mi NW 15.0 mph - -   Clear
11:00 PM 59.0 °F 37.4 °F 45% 29.71 in 6.2 mi NW 15.0 mph - N/A   Unknown
11:30 PM 59.0 °F 37.4 °F 45% 29.74 in 6.2 mi NNW 17.3 mph - N/A   Unknown